Year,Month,Day,Hour,Minute,Value (Times are PST for windspeed in km/hr)
2009,07,11,00,00,6.00
2009,07,11,00,01,5.50
2009,07,11,00,02,5.90
2009,07,11,00,03,6.70
2009,07,11,00,04,6.70
2009,07,11,00,05,7.60
2009,07,11,00,06,7.50
2009,07,11,00,07,6.70
2009,07,11,00,08,7.40
2009,07,11,00,09,7.60
2009,07,11,00,10,7.80
2009,07,11,00,11,7.50
2009,07,11,00,12,8.00
2009,07,11,00,13,7.90
2009,07,11,00,14,7.10
2009,07,11,00,15,7.00
2009,07,11,00,16,7.10
2009,07,11,00,17,6.60
2009,07,11,00,18,6.50
2009,07,11,00,19,6.70
2009,07,11,00,20,6.20
2009,07,11,00,21,6.40
2009,07,11,00,22,7.10
2009,07,11,00,23,8.10
2009,07,11,00,24,8.00
2009,07,11,00,25,7.00
2009,07,11,00,26,6.50
2009,07,11,00,27,6.60
2009,07,11,00,28,7.20
2009,07,11,00,29,7.50
2009,07,11,00,30,7.80
2009,07,11,00,31,8.10
2009,07,11,00,32,7.80
2009,07,11,00,33,7.60
2009,07,11,00,34,6.10
2009,07,11,00,35,7.10
2009,07,11,00,36,7.30
2009,07,11,00,37,8.20
2009,07,11,00,38,7.80
2009,07,11,00,39,7.60
2009,07,11,00,40,6.80
2009,07,11,00,41,7.20
2009,07,11,00,42,7.90
2009,07,11,00,43,5.70
2009,07,11,00,44,3.90
2009,07,11,00,45,0.10
2009,07,11,00,46,0.00
2009,07,11,00,47,1.40
2009,07,11,00,48,3.60
2009,07,11,00,49,3.80
2009,07,11,00,50,4.50
2009,07,11,00,51,4.90
2009,07,11,00,52,4.70
2009,07,11,00,53,4.30
2009,07,11,00,54,5.00
2009,07,11,00,55,2.30
2009,07,11,00,56,1.00
2009,07,11,00,57,0.10
2009,07,11,00,58,0.00
2009,07,11,00,59,0.00
2009,07,11,01,00,0.00
2009,07,11,01,01,0.00
2009,07,11,01,02,0.00
2009,07,11,01,03,0.20
2009,07,11,01,04,0.10
2009,07,11,01,05,0.00
2009,07,11,01,06,0.00
2009,07,11,01,07,0.00
2009,07,11,01,08,0.00
2009,07,11,01,09,0.10
2009,07,11,01,10,0.00
2009,07,11,01,11,0.00
2009,07,11,01,12,0.00
2009,07,11,01,13,0.00
2009,07,11,01,14,0.00
2009,07,11,01,15,0.00
2009,07,11,01,16,0.00
2009,07,11,01,17,0.00
2009,07,11,01,18,0.00
2009,07,11,01,19,0.00
2009,07,11,01,20,0.00
2009,07,11,01,21,0.00
2009,07,11,01,22,0.00
2009,07,11,01,23,0.00
2009,07,11,01,24,0.00
2009,07,11,01,25,0.00
2009,07,11,01,26,0.00
2009,07,11,01,27,0.00
2009,07,11,01,28,0.00
2009,07,11,01,29,0.00
2009,07,11,01,30,0.20
2009,07,11,01,31,3.90
2009,07,11,01,32,4.80
2009,07,11,01,33,5.70
2009,07,11,01,34,4.90
2009,07,11,01,35,5.30
2009,07,11,01,36,6.00
2009,07,11,01,37,5.60
2009,07,11,01,38,5.20
2009,07,11,01,39,5.70
2009,07,11,01,40,5.80
2009,07,11,01,41,5.60
2009,07,11,01,42,5.00
2009,07,11,01,43,4.40
2009,07,11,01,44,5.60
2009,07,11,01,45,5.60
2009,07,11,01,46,5.60
2009,07,11,01,47,5.70
2009,07,11,01,48,5.60
2009,07,11,01,49,6.10
2009,07,11,01,50,6.70
2009,07,11,01,51,6.40
2009,07,11,01,52,7.40
2009,07,11,01,53,7.10
2009,07,11,01,54,6.20
2009,07,11,01,55,5.90
2009,07,11,01,56,4.90
2009,07,11,01,57,4.90
2009,07,11,01,58,5.20
2009,07,11,01,59,6.30
2009,07,11,02,00,4.50
2009,07,11,02,01,4.80
2009,07,11,02,02,3.70
2009,07,11,02,03,3.10
2009,07,11,02,04,3.70
2009,07,11,02,05,4.70
2009,07,11,02,06,5.80
2009,07,11,02,07,5.10
2009,07,11,02,08,5.20
2009,07,11,02,09,4.80
2009,07,11,02,10,5.10
2009,07,11,02,11,5.40
2009,07,11,02,12,4.40
2009,07,11,02,13,5.40
2009,07,11,02,14,3.40
2009,07,11,02,15,5.00
2009,07,11,02,16,3.10
2009,07,11,02,17,1.60
2009,07,11,02,18,3.30
2009,07,11,02,19,2.90
2009,07,11,02,20,2.40
2009,07,11,02,21,0.40
2009,07,11,02,22,0.00
2009,07,11,02,23,0.00
2009,07,11,02,24,0.00
2009,07,11,02,25,2.50
2009,07,11,02,26,3.70
2009,07,11,02,27,2.90
2009,07,11,02,28,3.10
2009,07,11,02,29,2.90
2009,07,11,02,30,3.70
2009,07,11,02,31,3.60
2009,07,11,02,32,3.60
2009,07,11,02,33,3.30
2009,07,11,02,34,3.70
2009,07,11,02,35,3.10
2009,07,11,02,36,1.90
2009,07,11,02,37,2.20
2009,07,11,02,38,0.00
2009,07,11,02,39,0.50
2009,07,11,02,40,0.60
2009,07,11,02,41,2.00
2009,07,11,02,42,2.90
2009,07,11,02,43,3.40
2009,07,11,02,44,4.00
2009,07,11,02,45,4.40
2009,07,11,02,46,4.00
2009,07,11,02,47,3.20
2009,07,11,02,48,3.10
2009,07,11,02,49,3.70
2009,07,11,02,50,3.90
2009,07,11,02,51,1.20
2009,07,11,02,52,0.00
2009,07,11,02,53,0.00
2009,07,11,02,54,1.20
2009,07,11,02,55,1.10
2009,07,11,02,56,0.10
2009,07,11,02,57,2.30
2009,07,11,02,58,3.50
2009,07,11,02,59,4.20
2009,07,11,03,00,3.90
2009,07,11,03,01,4.60
2009,07,11,03,02,4.20
2009,07,11,03,03,3.90
2009,07,11,03,04,4.40
2009,07,11,03,05,4.10
2009,07,11,03,06,4.60
2009,07,11,03,07,3.10
2009,07,11,03,08,3.80
2009,07,11,03,09,4.20
2009,07,11,03,10,3.90
2009,07,11,03,11,4.50
2009,07,11,03,12,5.10
2009,07,11,03,13,4.00
2009,07,11,03,14,4.10
2009,07,11,03,15,4.70
2009,07,11,03,16,4.60
2009,07,11,03,17,4.20
2009,07,11,03,18,4.50
2009,07,11,03,19,4.40
2009,07,11,03,20,3.70
2009,07,11,03,21,4.90
2009,07,11,03,22,4.70
2009,07,11,03,23,3.00
2009,07,11,03,24,3.00
2009,07,11,03,25,5.00
2009,07,11,03,26,4.40
2009,07,11,03,27,4.20
2009,07,11,03,28,4.30
2009,07,11,03,29,4.80
2009,07,11,03,30,5.10
2009,07,11,03,31,4.80
2009,07,11,03,32,4.10
2009,07,11,03,33,4.80
2009,07,11,03,34,4.80
2009,07,11,03,35,4.70
2009,07,11,03,36,4.30
2009,07,11,03,37,4.60
2009,07,11,03,38,4.90
2009,07,11,03,39,4.10
2009,07,11,03,40,4.10
2009,07,11,03,41,5.30
2009,07,11,03,42,5.50
2009,07,11,03,43,4.70
2009,07,11,03,44,4.60
2009,07,11,03,45,4.70
2009,07,11,03,46,4.80
2009,07,11,03,47,5.50
2009,07,11,03,48,5.70
2009,07,11,03,49,5.50
2009,07,11,03,50,4.90
2009,07,11,03,51,4.30
2009,07,11,03,52,4.30
2009,07,11,03,53,3.60
2009,07,11,03,54,2.90
2009,07,11,03,55,3.30
2009,07,11,03,56,3.80
2009,07,11,03,57,3.70
2009,07,11,03,58,2.30
2009,07,11,03,59,2.20
2009,07,11,04,00,2.50
2009,07,11,04,01,3.10
2009,07,11,04,02,2.70
2009,07,11,04,03,1.80
2009,07,11,04,04,3.20
2009,07,11,04,05,2.50
2009,07,11,04,06,3.00
2009,07,11,04,07,3.30
2009,07,11,04,08,1.50
2009,07,11,04,09,0.70
2009,07,11,04,10,3.60
2009,07,11,04,11,0.30
2009,07,11,04,12,3.00
2009,07,11,04,13,5.00
2009,07,11,04,14,4.40
2009,07,11,04,15,6.00
2009,07,11,04,16,6.60
2009,07,11,04,17,7.20
2009,07,11,04,18,7.40
2009,07,11,04,19,4.30
2009,07,11,04,20,7.00
2009,07,11,04,21,4.90
2009,07,11,04,22,6.80
2009,07,11,04,23,4.30
2009,07,11,04,24,4.90
2009,07,11,04,25,6.40
2009,07,11,04,26,7.10
2009,07,11,04,27,5.90
2009,07,11,04,28,5.60
2009,07,11,04,29,5.20
2009,07,11,04,30,5.30
2009,07,11,04,31,4.50
2009,07,11,04,32,4.50
2009,07,11,04,33,4.40
2009,07,11,04,34,3.90
2009,07,11,04,35,4.70
2009,07,11,04,36,3.80
2009,07,11,04,37,4.00
2009,07,11,04,38,4.40
2009,07,11,04,39,5.60
2009,07,11,04,40,4.80
2009,07,11,04,41,5.50
2009,07,11,04,42,4.40
2009,07,11,04,43,4.40
2009,07,11,04,44,4.90
2009,07,11,04,45,5.10
2009,07,11,04,46,5.80
2009,07,11,04,47,5.60
2009,07,11,04,48,4.20
2009,07,11,04,49,4.50
2009,07,11,04,50,4.80
2009,07,11,04,51,5.40
2009,07,11,04,52,5.30
2009,07,11,04,53,5.80
2009,07,11,04,54,5.70
2009,07,11,04,55,5.50
2009,07,11,04,56,5.50
2009,07,11,04,57,4.90
2009,07,11,04,58,4.90
2009,07,11,04,59,5.00
2009,07,11,05,00,5.20
2009,07,11,05,01,5.60
2009,07,11,05,02,5.60
2009,07,11,05,03,6.00
2009,07,11,05,04,5.80
2009,07,11,05,05,6.50
2009,07,11,05,06,6.30
2009,07,11,05,07,6.20
2009,07,11,05,08,7.00
2009,07,11,05,09,6.00
2009,07,11,05,10,6.20
2009,07,11,05,11,6.00
2009,07,11,05,12,5.40
2009,07,11,05,13,5.30
2009,07,11,05,14,5.60
2009,07,11,05,15,6.30
2009,07,11,05,16,5.00
2009,07,11,05,17,5.80
2009,07,11,05,18,5.60
2009,07,11,05,19,6.00
2009,07,11,05,20,6.10
2009,07,11,05,21,5.80
2009,07,11,05,22,5.10
2009,07,11,05,23,5.00
2009,07,11,05,24,4.90
2009,07,11,05,25,4.90
2009,07,11,05,26,5.00
2009,07,11,05,27,5.70
2009,07,11,05,28,6.30
2009,07,11,05,29,5.30
2009,07,11,05,30,5.60
2009,07,11,05,31,5.00
2009,07,11,05,32,5.40
2009,07,11,05,33,5.80
2009,07,11,05,34,5.70
2009,07,11,05,35,5.40
2009,07,11,05,36,6.00
2009,07,11,05,37,6.80
2009,07,11,05,38,7.10
2009,07,11,05,39,7.60
2009,07,11,05,40,7.50
2009,07,11,05,41,7.30
2009,07,11,05,42,7.70
2009,07,11,05,43,7.70
2009,07,11,05,44,7.40
2009,07,11,05,45,7.10
2009,07,11,05,46,7.80
2009,07,11,05,47,7.80
2009,07,11,05,48,6.50
2009,07,11,05,49,6.30
2009,07,11,05,50,6.50
2009,07,11,05,51,7.00
2009,07,11,05,52,6.30
2009,07,11,05,53,7.20
2009,07,11,05,54,6.00
2009,07,11,05,55,7.40
2009,07,11,05,56,7.40
2009,07,11,05,57,7.90
2009,07,11,05,58,8.40
2009,07,11,05,59,7.70
2009,07,11,06,00,8.40
2009,07,11,06,01,7.40
2009,07,11,06,02,6.30
2009,07,11,06,03,5.10
2009,07,11,06,04,6.60
2009,07,11,06,05,7.50
2009,07,11,06,06,7.70
2009,07,11,06,07,6.40
2009,07,11,06,08,6.10
2009,07,11,06,09,5.60
2009,07,11,06,10,5.20
2009,07,11,06,11,5.10
2009,07,11,06,12,5.30
2009,07,11,06,13,4.30
2009,07,11,06,14,5.60
2009,07,11,06,15,6.50
2009,07,11,06,16,6.20
2009,07,11,06,17,7.10
2009,07,11,06,18,5.80
2009,07,11,06,19,5.70
2009,07,11,06,20,5.80
2009,07,11,06,21,5.20
2009,07,11,06,22,6.30
2009,07,11,06,23,5.60
2009,07,11,06,24,5.20
2009,07,11,06,25,4.00
2009,07,11,06,26,4.80
2009,07,11,06,27,5.10
2009,07,11,06,28,4.50
2009,07,11,06,29,4.30
2009,07,11,06,30,5.20
2009,07,11,06,31,4.40
2009,07,11,06,32,4.70
2009,07,11,06,33,4.50
2009,07,11,06,34,5.00
2009,07,11,06,35,4.70
2009,07,11,06,36,5.80
2009,07,11,06,37,4.60
2009,07,11,06,38,3.90
2009,07,11,06,39,4.40
2009,07,11,06,40,4.50
2009,07,11,06,41,4.40
2009,07,11,06,42,3.60
2009,07,11,06,43,3.50
2009,07,11,06,44,3.50
2009,07,11,06,45,1.60
2009,07,11,06,46,0.00
2009,07,11,06,47,0.80
2009,07,11,06,48,2.70
2009,07,11,06,49,3.50
2009,07,11,06,50,3.40
2009,07,11,06,51,0.50
2009,07,11,06,52,0.00
2009,07,11,06,53,0.00
2009,07,11,06,54,0.00
2009,07,11,06,55,0.00
2009,07,11,06,56,1.70
2009,07,11,06,57,5.20
2009,07,11,06,58,5.90
2009,07,11,06,59,3.70
2009,07,11,07,00,0.90
2009,07,11,07,01,4.20
2009,07,11,07,02,5.20
2009,07,11,07,03,4.20
2009,07,11,07,04,4.20
2009,07,11,07,05,3.20
2009,07,11,07,06,1.50
2009,07,11,07,07,1.50
2009,07,11,07,08,1.80
2009,07,11,07,09,0.00
2009,07,11,07,10,0.00
2009,07,11,07,11,0.00
2009,07,11,07,12,0.40
2009,07,11,07,13,0.20
2009,07,11,07,14,3.10
2009,07,11,07,15,0.70
2009,07,11,07,16,0.00
2009,07,11,07,17,2.70
2009,07,11,07,18,1.50
2009,07,11,07,19,0.00
2009,07,11,07,20,0.00
2009,07,11,07,21,0.00
2009,07,11,07,22,0.00
2009,07,11,07,23,3.00
2009,07,11,07,24,0.30
2009,07,11,07,25,3.70
2009,07,11,07,26,5.70
2009,07,11,07,27,0.00
2009,07,11,07,28,0.00
2009,07,11,07,29,0.00
2009,07,11,07,30,3.50
2009,07,11,07,31,1.50
2009,07,11,07,32,0.10
2009,07,11,07,33,1.90
2009,07,11,07,34,2.20
2009,07,11,07,35,2.80
2009,07,11,07,36,4.10
2009,07,11,07,37,1.20
2009,07,11,07,38,0.50
2009,07,11,07,39,4.30
2009,07,11,07,40,2.20
2009,07,11,07,41,4.70
2009,07,11,07,42,1.90
2009,07,11,07,43,4.30
2009,07,11,07,44,1.00
2009,07,11,07,45,6.20
2009,07,11,07,46,2.20
2009,07,11,07,47,4.10
2009,07,11,07,48,5.40
2009,07,11,07,49,2.60
2009,07,11,07,50,10.20
2009,07,11,07,51,6.60
2009,07,11,07,52,5.20
2009,07,11,07,53,0.50
2009,07,11,07,54,3.90
2009,07,11,07,55,5.30
2009,07,11,07,56,8.00
2009,07,11,07,57,7.50
2009,07,11,07,58,5.30
2009,07,11,07,59,4.30
2009,07,11,08,00,2.40
2009,07,11,08,01,7.40
2009,07,11,08,02,7.70
2009,07,11,08,03,6.70
2009,07,11,08,04,3.20
2009,07,11,08,05,6.60
2009,07,11,08,06,3.50
2009,07,11,08,07,1.10
2009,07,11,08,08,6.00
2009,07,11,08,09,2.30
2009,07,11,08,10,7.60
2009,07,11,08,11,1.70
2009,07,11,08,12,3.60
2009,07,11,08,13,5.50
2009,07,11,08,14,5.80
2009,07,11,08,15,8.20
2009,07,11,08,16,12.70
2009,07,11,08,17,6.20
2009,07,11,08,18,6.90
2009,07,11,08,19,8.00
2009,07,11,08,20,6.80
2009,07,11,08,21,8.00
2009,07,11,08,22,4.70
2009,07,11,08,23,7.60
2009,07,11,08,24,8.10
2009,07,11,08,25,4.30
2009,07,11,08,26,5.60
2009,07,11,08,27,4.80
2009,07,11,08,28,7.10
2009,07,11,08,29,3.00
2009,07,11,08,30,7.10
2009,07,11,08,31,6.30
2009,07,11,08,32,4.80
2009,07,11,08,33,2.20
2009,07,11,08,34,3.90
2009,07,11,08,35,3.70
2009,07,11,08,36,4.70
2009,07,11,08,37,8.40
2009,07,11,08,38,6.90
2009,07,11,08,39,12.20
2009,07,11,08,40,10.00
2009,07,11,08,41,12.20
2009,07,11,08,42,8.40
2009,07,11,08,43,7.30
2009,07,11,08,44,9.70
2009,07,11,08,45,7.10
2009,07,11,08,46,7.80
2009,07,11,08,47,11.30
2009,07,11,08,48,11.00
2009,07,11,08,49,7.60
2009,07,11,08,50,6.10
2009,07,11,08,51,8.90
2009,07,11,08,52,4.50
2009,07,11,08,53,3.60
2009,07,11,08,54,4.70
2009,07,11,08,55,6.50
2009,07,11,08,56,5.00
2009,07,11,08,57,8.40
2009,07,11,08,58,5.20
2009,07,11,08,59,11.20
2009,07,11,09,00,9.90
2009,07,11,09,01,7.50
2009,07,11,09,02,5.50
2009,07,11,09,03,7.20
2009,07,11,09,04,10.00
2009,07,11,09,05,6.60
2009,07,11,09,06,7.60
2009,07,11,09,07,7.00
2009,07,11,09,08,7.40
2009,07,11,09,09,8.20
2009,07,11,09,10,7.50
2009,07,11,09,11,7.90
2009,07,11,09,12,7.70
2009,07,11,09,13,6.60
2009,07,11,09,14,8.50
2009,07,11,09,15,7.20
2009,07,11,09,16,8.50
2009,07,11,09,17,4.60
2009,07,11,09,18,7.00
2009,07,11,09,19,5.50
2009,07,11,09,20,9.30
2009,07,11,09,21,7.60
2009,07,11,09,22,8.50
2009,07,11,09,23,7.00
2009,07,11,09,24,9.30
2009,07,11,09,25,9.70
2009,07,11,09,26,8.50
2009,07,11,09,27,7.40
2009,07,11,09,28,9.80
2009,07,11,09,29,8.50
2009,07,11,09,30,10.60
2009,07,11,09,31,8.40
2009,07,11,09,32,8.50
2009,07,11,09,33,6.90
2009,07,11,09,34,7.50
2009,07,11,09,35,8.40
2009,07,11,09,36,7.40
2009,07,11,09,37,10.90
2009,07,11,09,38,8.00
2009,07,11,09,39,6.70
2009,07,11,09,40,9.40
2009,07,11,09,41,5.70
2009,07,11,09,42,6.60
2009,07,11,09,43,4.10
2009,07,11,09,44,5.70
2009,07,11,09,45,7.80
2009,07,11,09,46,8.30
2009,07,11,09,47,8.50
2009,07,11,09,48,9.20
2009,07,11,09,49,9.70
2009,07,11,09,50,9.10
2009,07,11,09,51,9.30
2009,07,11,09,52,9.10
2009,07,11,09,53,7.30
2009,07,11,09,54,6.80
2009,07,11,09,55,9.10
2009,07,11,09,56,10.20
2009,07,11,09,57,6.20
2009,07,11,09,58,7.70
2009,07,11,09,59,6.00
2009,07,11,10,00,8.90
2009,07,11,10,01,9.20
2009,07,11,10,02,7.60
2009,07,11,10,03,8.10
2009,07,11,10,04,7.20
2009,07,11,10,05,6.40
2009,07,11,10,06,7.20
2009,07,11,10,07,9.70
2009,07,11,10,08,6.40
2009,07,11,10,09,7.00
2009,07,11,10,10,13.20
2009,07,11,10,11,12.80
2009,07,11,10,12,8.60
2009,07,11,10,13,9.80
2009,07,11,10,14,10.20
2009,07,11,10,15,15.50
2009,07,11,10,16,9.30
2009,07,11,10,17,8.90
2009,07,11,10,18,13.60
2009,07,11,10,19,12.30
2009,07,11,10,20,11.40
2009,07,11,10,21,11.00
2009,07,11,10,22,9.40
2009,07,11,10,23,8.30
2009,07,11,10,24,9.40
2009,07,11,10,25,12.30
2009,07,11,10,26,7.90
2009,07,11,10,27,9.60
2009,07,11,10,28,9.30
2009,07,11,10,29,9.00
2009,07,11,10,30,12.40
2009,07,11,10,31,9.40
2009,07,11,10,32,11.50
2009,07,11,10,33,9.90
2009,07,11,10,34,11.40
2009,07,11,10,35,13.30
2009,07,11,10,36,12.30
2009,07,11,10,37,9.50
2009,07,11,10,38,10.80
2009,07,11,10,39,12.00
2009,07,11,10,40,7.10
2009,07,11,10,41,10.10
2009,07,11,10,42,7.80
2009,07,11,10,43,8.80
2009,07,11,10,44,6.70
2009,07,11,10,45,4.20
2009,07,11,10,46,6.30
2009,07,11,10,47,6.80
2009,07,11,10,48,8.60
2009,07,11,10,49,7.10
2009,07,11,10,50,7.00
2009,07,11,10,51,7.60
2009,07,11,10,52,9.70
2009,07,11,10,53,7.40
2009,07,11,10,54,8.90
2009,07,11,10,55,6.00
2009,07,11,10,56,6.60
2009,07,11,10,57,6.00
2009,07,11,10,58,5.50
2009,07,11,10,59,5.30
2009,07,11,11,00,8.10
2009,07,11,11,01,9.30
2009,07,11,11,02,7.20
2009,07,11,11,03,8.30
2009,07,11,11,04,8.00
2009,07,11,11,05,9.60
2009,07,11,11,06,5.90
2009,07,11,11,07,7.20
2009,07,11,11,08,8.10
2009,07,11,11,09,7.60
2009,07,11,11,10,5.50
2009,07,11,11,11,7.20
2009,07,11,11,12,6.70
2009,07,11,11,13,4.20
2009,07,11,11,14,4.70
2009,07,11,11,15,6.90
2009,07,11,11,16,3.40
2009,07,11,11,17,6.10
2009,07,11,11,18,2.90
2009,07,11,11,19,3.80
2009,07,11,11,20,6.70
2009,07,11,11,21,8.00
2009,07,11,11,22,10.40
2009,07,11,11,23,9.60
2009,07,11,11,24,11.20
2009,07,11,11,25,10.30
2009,07,11,11,26,9.50
2009,07,11,11,27,10.20
2009,07,11,11,28,7.90
2009,07,11,11,29,13.60
2009,07,11,11,30,9.10
2009,07,11,11,31,12.10
2009,07,11,11,32,10.40
2009,07,11,11,33,8.80
2009,07,11,11,34,6.00
2009,07,11,11,35,8.30
2009,07,11,11,36,15.20
2009,07,11,11,37,10.00
2009,07,11,11,38,13.60
2009,07,11,11,39,7.50
2009,07,11,11,40,7.60
2009,07,11,11,41,12.60
2009,07,11,11,42,9.00
2009,07,11,11,43,6.90
2009,07,11,11,44,10.50
2009,07,11,11,45,13.50
2009,07,11,11,46,8.20
2009,07,11,11,47,8.10
2009,07,11,11,48,11.30
2009,07,11,11,49,10.10
2009,07,11,11,50,7.00
2009,07,11,11,51,8.30
2009,07,11,11,52,7.90
2009,07,11,11,53,9.50
2009,07,11,11,54,8.50
2009,07,11,11,55,6.60
2009,07,11,11,56,8.30
2009,07,11,11,57,6.30
2009,07,11,11,58,8.30
2009,07,11,11,59,12.40
2009,07,11,12,00,9.40
2009,07,11,12,01,10.70
2009,07,11,12,02,9.50
2009,07,11,12,03,10.60
2009,07,11,12,04,12.30
2009,07,11,12,05,9.00
2009,07,11,12,06,9.60
2009,07,11,12,07,6.30
2009,07,11,12,08,7.10
2009,07,11,12,09,7.30
2009,07,11,12,10,6.80
2009,07,11,12,11,8.70
2009,07,11,12,12,8.10
2009,07,11,12,13,7.00
2009,07,11,12,14,6.10
2009,07,11,12,15,8.10
2009,07,11,12,16,7.80
2009,07,11,12,17,5.00
2009,07,11,12,18,5.30
2009,07,11,12,19,9.60
2009,07,11,12,20,7.00
2009,07,11,12,21,7.00
2009,07,11,12,22,8.20
2009,07,11,12,23,5.00
2009,07,11,12,24,9.40
2009,07,11,12,25,13.10
2009,07,11,12,26,9.30
2009,07,11,12,27,4.40
2009,07,11,12,28,7.10
2009,07,11,12,29,7.20
2009,07,11,12,30,8.30
2009,07,11,12,31,7.10
2009,07,11,12,32,10.10
2009,07,11,12,33,6.10
2009,07,11,12,34,10.00
2009,07,11,12,35,10.60
2009,07,11,12,36,8.90
2009,07,11,12,37,10.20
2009,07,11,12,38,6.10
2009,07,11,12,39,8.50
2009,07,11,12,40,6.30
2009,07,11,12,41,9.40
2009,07,11,12,42,7.60
2009,07,11,12,43,6.40
2009,07,11,12,44,6.60
2009,07,11,12,45,8.70
2009,07,11,12,46,9.40
2009,07,11,12,47,9.90
2009,07,11,12,48,9.40
2009,07,11,12,49,9.80
2009,07,11,12,50,7.20
2009,07,11,12,51,6.50
2009,07,11,12,52,9.60
2009,07,11,12,53,8.50
2009,07,11,12,54,7.50
2009,07,11,12,55,8.10
2009,07,11,12,56,7.80
2009,07,11,12,57,6.50
2009,07,11,12,58,7.20
2009,07,11,12,59,8.70
2009,07,11,13,00,10.20
2009,07,11,13,01,11.80
2009,07,11,13,02,8.60
2009,07,11,13,03,8.40
2009,07,11,13,04,7.10
2009,07,11,13,05,8.30
2009,07,11,13,06,7.20
2009,07,11,13,07,5.50
2009,07,11,13,08,7.90
2009,07,11,13,09,9.00
2009,07,11,13,10,8.50
2009,07,11,13,11,10.30
2009,07,11,13,12,12.20
2009,07,11,13,13,6.30
2009,07,11,13,14,6.10
2009,07,11,13,15,7.00
2009,07,11,13,16,8.10
2009,07,11,13,17,7.60
2009,07,11,13,18,7.70
2009,07,11,13,19,8.70
2009,07,11,13,20,8.90
2009,07,11,13,21,5.90
2009,07,11,13,22,11.10
2009,07,11,13,23,8.40
2009,07,11,13,24,6.90
2009,07,11,13,25,7.50
2009,07,11,13,26,4.60
2009,07,11,13,27,9.20
2009,07,11,13,28,8.00
2009,07,11,13,29,5.10
2009,07,11,13,30,4.90
2009,07,11,13,31,8.30
2009,07,11,13,32,7.60
2009,07,11,13,33,8.10
2009,07,11,13,34,9.80
2009,07,11,13,35,7.50
2009,07,11,13,36,9.60
2009,07,11,13,37,8.60
2009,07,11,13,38,9.20
2009,07,11,13,39,10.60
2009,07,11,13,40,10.10
2009,07,11,13,41,9.70
2009,07,11,13,42,6.20
2009,07,11,13,43,3.40
2009,07,11,13,44,8.90
2009,07,11,13,45,4.50
2009,07,11,13,46,8.90
2009,07,11,13,47,8.70
2009,07,11,13,48,8.30
2009,07,11,13,49,9.40
2009,07,11,13,50,9.30
2009,07,11,13,51,11.00
2009,07,11,13,52,8.20
2009,07,11,13,53,11.80
2009,07,11,13,54,8.50
2009,07,11,13,55,7.70
2009,07,11,13,56,10.80
2009,07,11,13,57,8.90
2009,07,11,13,58,11.70
2009,07,11,13,59,9.00
2009,07,11,14,00,6.90
2009,07,11,14,01,10.00
2009,07,11,14,02,9.40
2009,07,11,14,03,6.60
2009,07,11,14,04,14.00
2009,07,11,14,05,10.80
2009,07,11,14,06,10.50
2009,07,11,14,07,8.70
2009,07,11,14,08,7.30
2009,07,11,14,09,7.70
2009,07,11,14,10,10.40
2009,07,11,14,11,11.30
2009,07,11,14,12,8.10
2009,07,11,14,13,6.40
2009,07,11,14,14,5.40
2009,07,11,14,15,5.90
2009,07,11,14,16,6.40
2009,07,11,14,17,7.70
2009,07,11,14,18,9.00
2009,07,11,14,19,10.80
2009,07,11,14,20,5.30
2009,07,11,14,21,7.30
2009,07,11,14,22,7.00
2009,07,11,14,23,6.40
2009,07,11,14,24,6.00
2009,07,11,14,25,11.90
2009,07,11,14,26,10.80
2009,07,11,14,27,9.30
2009,07,11,14,28,6.90
2009,07,11,14,29,9.40
2009,07,11,14,30,8.80
2009,07,11,14,31,9.50
2009,07,11,14,32,6.00
2009,07,11,14,33,8.40
2009,07,11,14,34,10.70
2009,07,11,14,35,8.70
2009,07,11,14,36,4.10
2009,07,11,14,37,8.00
2009,07,11,14,38,9.20
2009,07,11,14,39,11.40
2009,07,11,14,40,12.20
2009,07,11,14,41,9.90
2009,07,11,14,42,7.80
2009,07,11,14,43,7.90
2009,07,11,14,44,3.40
2009,07,11,14,45,5.90
2009,07,11,14,46,9.30
2009,07,11,14,47,6.50
2009,07,11,14,48,7.40
2009,07,11,14,49,14.50
2009,07,11,14,50,15.20
2009,07,11,14,51,9.40
2009,07,11,14,52,10.70
2009,07,11,14,53,11.00
2009,07,11,14,54,10.60
2009,07,11,14,55,7.90
2009,07,11,14,56,13.20
2009,07,11,14,57,10.70
2009,07,11,14,58,8.30
2009,07,11,14,59,6.80
2009,07,11,15,00,10.40
2009,07,11,15,01,8.70
2009,07,11,15,02,12.80
2009,07,11,15,03,7.50
2009,07,11,15,04,9.90
2009,07,11,15,05,6.80
2009,07,11,15,06,3.50
2009,07,11,15,07,6.90
2009,07,11,15,08,9.60
2009,07,11,15,09,11.00
2009,07,11,15,10,6.70
2009,07,11,15,11,13.80
2009,07,11,15,12,7.00
2009,07,11,15,13,6.50
2009,07,11,15,14,2.40
2009,07,11,15,15,8.60
2009,07,11,15,16,9.50
2009,07,11,15,17,10.60
2009,07,11,15,18,11.80
2009,07,11,15,19,9.30
2009,07,11,15,20,6.10
2009,07,11,15,21,10.90
2009,07,11,15,22,12.40
2009,07,11,15,23,8.50
2009,07,11,15,24,12.00
2009,07,11,15,25,7.10
2009,07,11,15,26,8.20
2009,07,11,15,27,7.60
2009,07,11,15,28,13.70
2009,07,11,15,29,12.40
2009,07,11,15,30,9.80
2009,07,11,15,31,7.20
2009,07,11,15,32,7.00
2009,07,11,15,33,8.10
2009,07,11,15,34,7.60
2009,07,11,15,35,11.40
2009,07,11,15,36,4.10
2009,07,11,15,37,9.60
2009,07,11,15,38,10.00
2009,07,11,15,39,9.90
2009,07,11,15,40,8.70
2009,07,11,15,41,9.80
2009,07,11,15,42,10.20
2009,07,11,15,43,8.90
2009,07,11,15,44,9.00
2009,07,11,15,45,3.40
2009,07,11,15,46,10.20
2009,07,11,15,47,11.60
2009,07,11,15,48,10.90
2009,07,11,15,49,8.30
2009,07,11,15,50,6.40
2009,07,11,15,51,9.50
2009,07,11,15,52,6.40
2009,07,11,15,53,9.60
2009,07,11,15,54,7.60
2009,07,11,15,55,9.60
2009,07,11,15,56,8.20
2009,07,11,15,57,10.00
2009,07,11,15,58,10.60
2009,07,11,15,59,10.20
2009,07,11,16,00,12.20
2009,07,11,16,01,12.00
2009,07,11,16,02,10.40
2009,07,11,16,03,9.00
2009,07,11,16,04,9.00
2009,07,11,16,05,8.30
2009,07,11,16,06,10.60
2009,07,11,16,07,8.70
2009,07,11,16,08,9.50
2009,07,11,16,09,5.90
2009,07,11,16,10,10.20
2009,07,11,16,11,12.10
2009,07,11,16,12,8.50
2009,07,11,16,13,10.20
2009,07,11,16,14,7.30
2009,07,11,16,15,10.60
2009,07,11,16,16,10.40
2009,07,11,16,17,9.70
2009,07,11,16,18,7.90
2009,07,11,16,19,10.70
2009,07,11,16,20,6.30
2009,07,11,16,21,12.20
2009,07,11,16,22,12.90
2009,07,11,16,23,12.30
2009,07,11,16,24,9.90
2009,07,11,16,25,5.60
2009,07,11,16,26,9.50
2009,07,11,16,27,7.70
2009,07,11,16,28,7.60
2009,07,11,16,29,7.50
2009,07,11,16,30,8.60
2009,07,11,16,31,8.50
2009,07,11,16,32,5.00
2009,07,11,16,33,9.20
2009,07,11,16,34,8.40
2009,07,11,16,35,12.80
2009,07,11,16,36,9.00
2009,07,11,16,37,7.50
2009,07,11,16,38,6.70
2009,07,11,16,39,13.60
2009,07,11,16,40,10.80
2009,07,11,16,41,9.60
2009,07,11,16,42,6.40
2009,07,11,16,43,11.80
2009,07,11,16,44,11.80
2009,07,11,16,45,9.10
2009,07,11,16,46,14.10
2009,07,11,16,47,9.70
2009,07,11,16,48,13.10
2009,07,11,16,49,11.40
2009,07,11,16,50,10.90
2009,07,11,16,51,2.50
2009,07,11,16,52,10.20
2009,07,11,16,53,9.20
2009,07,11,16,54,5.70
2009,07,11,16,55,5.00
2009,07,11,16,56,1.40
2009,07,11,16,57,6.20
2009,07,11,16,58,10.20
2009,07,11,16,59,9.80
2009,07,11,17,00,6.40
2009,07,11,17,01,4.50
2009,07,11,17,02,5.50
2009,07,11,17,03,9.10
2009,07,11,17,04,7.20
2009,07,11,17,05,9.10
2009,07,11,17,06,7.30
2009,07,11,17,07,3.90
2009,07,11,17,08,3.80
2009,07,11,17,09,0.50
2009,07,11,17,10,5.40
2009,07,11,17,11,4.20
2009,07,11,17,12,3.30
2009,07,11,17,13,4.80
2009,07,11,17,14,3.20
2009,07,11,17,15,8.30
2009,07,11,17,16,6.80
2009,07,11,17,17,8.70
2009,07,11,17,18,9.20
2009,07,11,17,19,5.50
2009,07,11,17,20,4.20
2009,07,11,17,21,6.10
2009,07,11,17,22,9.60
2009,07,11,17,23,5.90
2009,07,11,17,24,6.80
2009,07,11,17,25,10.60
2009,07,11,17,26,14.90
2009,07,11,17,27,11.40
2009,07,11,17,28,10.50
2009,07,11,17,29,5.90
2009,07,11,17,30,10.90
2009,07,11,17,31,9.50
2009,07,11,17,32,6.60
2009,07,11,17,33,7.00
2009,07,11,17,34,4.90
2009,07,11,17,35,3.40
2009,07,11,17,36,3.90
2009,07,11,17,37,2.40
2009,07,11,17,38,5.50
2009,07,11,17,39,3.70
2009,07,11,17,40,7.60
2009,07,11,17,41,2.90
2009,07,11,17,42,1.10
2009,07,11,17,43,6.30
2009,07,11,17,44,11.70
2009,07,11,17,45,9.80
2009,07,11,17,46,8.30
2009,07,11,17,47,10.00
2009,07,11,17,48,6.00
2009,07,11,17,49,7.50
2009,07,11,17,50,8.50
2009,07,11,17,51,8.80
2009,07,11,17,52,5.40
2009,07,11,17,53,1.50
2009,07,11,17,54,1.70
2009,07,11,17,55,2.10
2009,07,11,17,56,5.60
2009,07,11,17,57,2.90
2009,07,11,17,58,2.80
2009,07,11,17,59,5.80
2009,07,11,18,00,7.70